John F Kennedy International Airport New York US
ICAO: KJFK
IATA: JFK
Category: Large
Scheduled Services: Yes

Elevation: 13 ft
TransAlt. 18000 ft.

Airport Communications:
NEW YORK APP (ROBER):125.7
NEW YORK APPROACH (CAMRN):127.4
NEW YORK APPROACH (FINAL):132.4
ATIS:115.1
CLNC DEL:135.05
NEW YORK DEP:135.9
GND:121.9
NEW YORK RDO:115.9
KENNEDY TWR:119.1
UNICOM:122.95

KJFK Zoom In..

If you have problems with the map follow the link
https://www.worldairports.se/pages/airport.php?
ICAO=KJFK

Runways:

(A) RW 04L length 11351 ft width 150 ft
ILS 110.90 / hdg 45

(B) RW 04R length 8400 ft width 200 ft
ILS 109.50 / hdg 45

(C) RW 13L length 10000 ft width 150 ft
ILS 111.50 / hdg 135

(D) RW 13R length 14511 ft width 200 ft
---- / hdg 135

(E) RW 22L length 8400 ft width 200 ft
ILS 110.90 / hdg 225

(F) RW 22R length 11351 ft width 150 ft
ILS 109.50 / hdg 225

(G) RW 31L length 14511 ft width 200 ft
ILS 111.35 / hdg 315

(H) RW 31R length 10000 ft width 150 ft
ILS 111.50 / hdg 315

Location; KJFK
Day. 08 / Time. 04.51 Zulu
* Altimeter: 30.52
* Temperature: -01° c. -30.2°f.
* Wind from: 350° Speed 09 kn.
Dewpoint: -09° c.
Visibility: 10 Statute Miles.
Clouds: Few 25000 ft.

KJFK 080451Z 35009KT 10SM FEW250 M01/M09 A3052 RMK AO2 SLP334 T10111089 400441017


Wind From 350°
Speed 09 kn.

 
 
jpsmedia worldairports.se 2019   terms of use